TimeCST,TemperatureF,Dew PointF,Humidity,Sea Level PressureIn,VisibilityMPH,Wind Direction,Wind SpeedMPH,Gust SpeedMPH,PrecipitationIn,Events,Conditions,WindDirDegrees,DateUTC
12:52 AM,19.0,12.0,74,30.41,10.0,North,4.6,-,N/A,,Scattered Clouds,350,2013-01-15 06:52:00
1:52 AM,19.0,10.9,71,30.38,10.0,NNE,4.6,-,N/A,,Clear,20,2013-01-15 07:52:00
2:52 AM,18.0,10.9,74,30.39,10.0,NE,4.6,-,N/A,,Clear,50,2013-01-15 08:52:00
3:52 AM,17.1,10.0,74,30.37,10.0,NNE,5.8,-,N/A,,Clear,20,2013-01-15 09:52:00
5:52 AM,19.0,12.9,77,30.37,10.0,North,4.6,-,N/A,,Clear,10,2013-01-15 11:52:00
6:52 AM,19.0,14.0,81,30.36,10.0,NNE,3.5,-,N/A,,Clear,30,2013-01-15 12:52:00
7:52 AM,19.0,14.0,81,30.34,10.0,North,5.8,-,N/A,,Clear,350,2013-01-15 13:52:00
8:52 AM,21.9,16.0,78,30.39,10.0,NNE,3.5,-,N/A,,Clear,30,2013-01-15 14:52:00
9:52 AM,25.0,18.0,75,30.40,10.0,NNE,5.8,-,N/A,,Clear,30,2013-01-15 15:52:00
10:52 AM,28.0,17.1,63,30.35,10.0,NNE,6.9,-,N/A,,Clear,30,2013-01-15 16:52:00
12:52 PM,34.0,12.0,40,30.28,10.0,North,11.5,-,N/A,,Clear,360,2013-01-15 18:52:00
1:52 PM,36.0,10.9,36,30.26,10.0,ENE,10.4,-,N/A,,Mostly Cloudy,60,2013-01-15 19:52:00
2:52 PM,37.0,12.0,36,30.25,10.0,NNE,9.2,-,N/A,,Mostly Cloudy,30,2013-01-15 20:52:00
3:52 PM,36.0,10.9,36,30.27,10.0,NNE,8.1,-,N/A,,Partly Cloudy,30,2013-01-15 21:52:00
5:52 PM,28.9,12.9,51,30.28,10.0,North,5.8,-,N/A,,Mostly Cloudy,360,2013-01-15 23:52:00
6:52 PM,28.0,14.0,56,30.28,10.0,NNE,4.6,-,N/A,,Clear,20,2013-01-16 00:52:00
7:52 PM,26.1,15.1,63,30.28,10.0,Calm,Calm,-,N/A,,Clear,0,2013-01-16 01:52:00
8:52 PM,23.0,14.0,68,30.26,10.0,Calm,Calm,-,N/A,,Clear,0,2013-01-16 02:52:00
9:52 PM,21.9,15.1,75,30.26,10.0,Calm,Calm,-,N/A,,Clear,0,2013-01-16 03:52:00
10:52 PM,19.9,12.9,74,30.25,10.0,Calm,Calm,-,N/A,,Clear,0,2013-01-16 04:52:00
11:52 PM,19.9,12.9,74,30.25,10.0,Calm,Calm,-,N/A,,Clear,0,2013-01-16 05:52:00